Satellite-Ground Cal/Val Region Overpasses Predictions

Prediction of Satellite NPP Overpassing Cal/Val Region: PacNW

Region Location: (Latitude: 10.00, Longitude: 139.50) to (Latitude: 22.70, Longitude: 165.60).

Table of predicted overpasses for the next 14.0 days since TLE Epoch: 2/5/2022
Interval Starting Time Starting Location Ending Time Ending Location
1 02/05/2022 02:26:56 ( 10.74, 162.95) 02/05/2022 02:30:19 ( 22.66, 160.11)
2 02/05/2022 14:58:37 ( 22.70, 160.35) 02/05/2022 15:02:13 ( 10.02, 157.34)
3 02/06/2022 02:10:27 ( 19.72, 165.59) 02/06/2022 02:11:17 ( 22.66, 164.87)
4 02/06/2022 03:49:12 ( 10.04, 142.49) 02/06/2022 03:52:46 ( 22.60, 139.51)
5 02/06/2022 14:39:35 ( 22.70, 165.11) 02/06/2022 14:43:11 ( 10.02, 162.09)
6 02/06/2022 16:21:05 ( 22.69, 139.73) 02/06/2022 16:21:20 ( 21.81, 139.51)
7 02/07/2022 03:30:11 ( 10.04, 147.25) 02/07/2022 03:33:46 ( 22.66, 144.25)
8 02/07/2022 16:02:04 ( 22.69, 144.49) 02/07/2022 16:05:40 ( 10.01, 141.47)
9 02/08/2022 03:11:09 ( 10.04, 152.00) 02/08/2022 03:14:44 ( 22.66, 149.00)
10 02/08/2022 15:43:02 ( 22.69, 149.24) 02/08/2022 15:46:38 ( 10.01, 146.23)
11 02/09/2022 02:52:08 ( 10.04, 156.76) 02/09/2022 02:55:43 ( 22.67, 153.76)
12 02/09/2022 15:24:01 ( 22.69, 153.99) 02/09/2022 15:27:37 ( 10.01, 150.98)
13 02/10/2022 02:33:06 ( 10.05, 161.51) 02/10/2022 02:36:41 ( 22.67, 158.51)
14 02/10/2022 15:04:59 ( 22.68, 158.75) 02/10/2022 15:08:35 ( 10.00, 155.73)
15 02/11/2022 02:14:55 ( 12.99, 165.59) 02/11/2022 02:17:40 ( 22.68, 163.27)
16 02/11/2022 03:55:34 ( 10.00, 140.91) 02/11/2022 03:57:17 ( 16.05, 139.50)
17 02/11/2022 14:45:58 ( 22.68, 163.50) 02/11/2022 14:49:33 ( 10.06, 160.50)
18 02/12/2022 03:36:32 ( 10.01, 145.66) 02/12/2022 03:40:08 ( 22.69, 142.64)
19 02/12/2022 14:30:06 ( 11.52, 165.59) 02/12/2022 14:30:31 ( 10.05, 165.26)
20 02/12/2022 16:08:26 ( 22.67, 142.88) 02/12/2022 16:12:01 ( 10.05, 139.88)
21 02/13/2022 03:17:31 ( 10.01, 150.41) 02/13/2022 03:21:07 ( 22.70, 147.40)
22 02/13/2022 15:49:25 ( 22.66, 147.63) 02/13/2022 15:53:00 ( 10.04, 144.63)
23 02/14/2022 02:58:30 ( 10.02, 155.17) 02/14/2022 03:02:05 ( 22.65, 152.17)
24 02/14/2022 15:30:23 ( 22.65, 152.39) 02/14/2022 15:33:58 ( 10.03, 149.39)
25 02/15/2022 02:39:28 ( 10.03, 159.92) 02/15/2022 02:43:03 ( 22.65, 156.92)
26 02/15/2022 15:11:21 ( 22.70, 157.16) 02/15/2022 15:14:57 ( 10.02, 154.14)
27 02/16/2022 02:20:27 ( 10.04, 164.67) 02/16/2022 02:24:02 ( 22.66, 161.67)
28 02/16/2022 14:52:19 ( 22.69, 161.91) 02/16/2022 14:55:55 ( 10.01, 158.90)
29 02/17/2022 03:42:55 ( 10.06, 144.05) 02/17/2022 03:46:30 ( 22.68, 141.05)
30 02/17/2022 14:34:32 ( 18.34, 165.60) 02/17/2022 14:36:54 ( 10.00, 163.65)
31 02/17/2022 16:14:48 ( 22.67, 141.29) 02/17/2022 16:16:53 ( 15.34, 139.51)
32 02/18/2022 03:23:53 ( 10.01, 148.82) 02/18/2022 03:27:29 ( 22.69, 145.80)
